HIMAWARI-8

Last updated on Thu Oct 30 2025 00:02:23 GMT+0000 (Coordinated Universal Time)

1 40267U 14060A 25302.53377932 -.00000264 00000+0 00000+0 0 9992 2 40267 0.0207 171.3417 0000692 356.8108 202.8061 1.00282941 40440
UTC large
Height (km)
Speed (km/s)
/
Latitude / Longitude
Inclination (degrees)
Orbital Period (minutes)
Azimuth
Elevation
Range (km)
Doppler Factor

Next 0 passes for location: London (51.5072 / 0.1276)

Sorry there are no passes over London.